Orangeburg, SC

10:24 AM EDT on June 26, 2017 (GMT -0400)
Orangeburg Municipal

Weather History for KOGB - July, 2012

Change the Weather History Date:

Saturday, July 21, 2012

  Actual Average Record
Temperature  
Mean Temperature 82 °F 82 °F  
Max Temperature 88 °F 93 °F 103 °F (1986)
Min Temperature 75 °F 72 °F 64 °F (1957)
Degree Days  
Heating Degree Days 0 0  
Month to date heating degree days 0 0  
Since 1 June heating degree days 0 1  
Since 1 July heating degree days 0 0  
Cooling Degree Days 17 17  
Month to date cooling degree days 377 350  
Year to date cooling degree days 1258 1051  
Since 1 June cooling degree days 710 748  
Growing Degree Days 31 (Base 50)    
Moisture  
Dew Point 72 °F    
Average Humidity 74    
Maximum Humidity 85    
Minimum Humidity 61    
Precipitation  
Precipitation T in 0.16 in 4.19 in (2014)
Month to date precipitation 4.51 3.75  
Year to date precipitation 24.59 26.49  
Sea Level Pressure  
Sea Level Pressure 30.06 in    
Wind  
Wind Speed 7 mph (SW)    
Max Wind Speed 16 mph    
Max Gust Speed 20 mph    
Visibility 10 miles    
Events      
T = Trace of Precipitation, MM = Missing Value Source: NWS Daily Summary

Daily Weather History Graph

Daily Weather History Graph

Search for Another Location

Airport or City:

Trip Planner

Search our weather history database for the weather conditions in past years. The results will help you decide how hot, cold, wet, or windy it might be!

Date:

Astronomy

Jul. 21, 2012 Rise Set
Actual Time 6:28 AM EDT 8:30 PM EDT
Civil Twilight 6:00 AM EDT 8:58 PM EDT
Nautical Twilight 5:26 AM EDT 9:32 PM EDT
Astronomical Twilight 4:50 AM EDT 10:08 PM EDT
Moon 8:57 AM EDT (7/21) 9:54 PM EDT (7/21)
Length of Visible Light 14h 57m
Length of Day
14h 01m
Waxing Crescent, 7% of the Moon is Illuminated
Jul 21
Waxing Crescent
Jul 26
First Quarter
Aug 1
Full
Aug 9
Last Quarter
Aug 17
New

Hourly Weather History & Observations

Time (EDT) Temp. Heat Index Dew Point Humidity Pressure Visibility Wind Dir Wind Speed Gust Speed Precip Events Conditions
1:53 AM 77.0 °F - 72.0 °F 84% 30.01 in 10.0 mi SSW 3.5 mph - N/A   Partly Cloudy
2:53 AM 77.0 °F - 72.0 °F 84% 30.01 in 10.0 mi SSW 4.6 mph - N/A   Clear
3:53 AM 77.0 °F - 70.0 °F 79% 30.01 in 10.0 mi SW 9.2 mph - N/A   Clear
4:53 AM 75.9 °F - 70.0 °F 82% 30.02 in 10.0 mi SW 8.1 mph - N/A   Partly Cloudy
6:53 AM 75.0 °F - 70.0 °F 84% 30.04 in 10.0 mi South 3.5 mph - N/A   Clear
7:53 AM 77.0 °F - 71.1 °F 82% 30.05 in 10.0 mi SW 6.9 mph - N/A   Clear
8:53 AM 80.1 °F 83.6 °F 71.1 °F 74% 30.06 in 10.0 mi SW 9.2 mph - N/A   Clear
9:53 AM 82.0 °F 86.7 °F 72.0 °F 71% 30.06 in 10.0 mi SW 8.1 mph - N/A   Partly Cloudy
10:53 AM 82.9 °F 88.0 °F 72.0 °F 69% 30.07 in 10.0 mi South 4.6 mph - N/A   Clear
11:53 AM 84.9 °F 91.4 °F 73.0 °F 67% 30.08 in 10.0 mi SSW 10.4 mph - N/A   Partly Cloudy
12:53 PM 84.0 °F 90.2 °F 73.0 °F 69% 30.09 in 10.0 mi SW 10.4 mph - 0.00 in   Partly Cloudy
1:53 PM 84.9 °F 90.7 °F 72.0 °F 65% 30.08 in 10.0 mi WSW 17.3 mph - 0.00 in   Clear
2:53 PM 84.9 °F 90.7 °F 72.0 °F 65% 30.06 in 10.0 mi SW 11.5 mph 17.3 mph N/A   Partly Cloudy
3:53 PM 86.0 °F 92.2 °F 72.0 °F 63% 30.06 in 10.0 mi SW 9.2 mph - N/A   Clear
4:53 PM 87.1 °F 94.5 °F 73.0 °F 63% 30.05 in 10.0 mi SW 9.2 mph - N/A   Scattered Clouds
5:53 PM 84.9 °F 91.4 °F 73.0 °F 67% 30.05 in 10.0 mi SW 6.9 mph - N/A   Clear
6:53 PM 86.0 °F 93.0 °F 73.0 °F 65% 30.05 in 10.0 mi SW 11.5 mph - N/A   Clear
7:53 PM 84.0 °F 91.2 °F 73.9 °F 72% 30.06 in 10.0 mi SW 3.5 mph - N/A   Clear
8:53 PM 82.0 °F 87.4 °F 73.0 °F 74% 30.07 in 10.0 mi Calm Calm - N/A   Clear
9:53 PM 79.0 °F - 73.9 °F 84% 30.08 in 10.0 mi Calm Calm - N/A   Clear
10:53 PM 79.0 °F - 73.9 °F 84% 30.10 in 10.0 mi Calm Calm - N/A   Clear
11:53 PM 78.1 °F - 73.9 °F 87% 30.11 in 10.0 mi Calm Calm - N/A   Clear